Weather reports worldwide

Advertisment
Culdrose, United Kingdom (3809): temperature & dewpoint: 18.01.2020 02:00:00 - 24.01.2020 02:00:00 (GMT)Culdrose, United Kingdom (3809): wind speed & gusts: 18.01.2020 02:00:00 - 24.01.2020 02:00:00 (GMT)Culdrose, United Kingdom (3809): wind direction: 18.01.2020 02:00:00 - 24.01.2020 02:00:00 (GMT)Culdrose, United Kingdom (3809): reduced air pressure: 18.01.2020 02:00:00 - 24.01.2020 02:00:00 (GMT)Culdrose, United Kingdom (3809): visibility: 18.01.2020 02:00:00 - 24.01.2020 02:00:00 (GMT)Culdrose, United Kingdom (3809): precipitation: 18.01.2020 02:00:00 - 24.01.2020 02:00:00 (GMT)
Date & Time tt [°C] td [°C] ff [km/h] ff [kn] fx [km/h] fx [kn] dd ppp [hPa] vv [km] rr [mm]
24.01.2020 02:00:00 5,5 4,6 15 8 - - NE 1025,5 8 0,0
24.01.2020 01:00:00 5,8 4,9 22 12 - - E 1025,9 10 0,0
24.01.2020 00:00:00 6,0 5,5 18 10 - - E 1026,2 7 0,0
23.01.2020 23:00:00 5,5 5,2 15 8 - - NE 1026,4 4,9 0,0
23.01.2020 22:00:00 5,4 5,1 15 8 - - NE 1026,8 4,7 0,0
23.01.2020 21:00:00 5,6 5,2 21 11 - - NE 1026,8 4,6 0,0
23.01.2020 20:00:00 6,2 5,5 21 11 - - ENE 1027,0 7 0,0
23.01.2020 19:00:00 6,5 5,8 24 13 - - ENE 1026,7 8 0,0
23.01.2020 18:00:00 6,7 5,8 21 11 - - ENE 1026,9 8 0,0
23.01.2020 17:00:00 7,0 6,0 22 12 - - ENE 1027,3 10 0,0
23.01.2020 16:00:00 7,3 6,1 29 16 - - ENE 1027,5 10 0,0
23.01.2020 15:00:00 7,9 6,7 34 18 - - E 1028,0 20 0,0
23.01.2020 14:00:00 7,7 7,0 29 16 - - ENE 1028,8 19 0,0
23.01.2020 13:00:00 7,3 6,9 22 12 - - ENE 1029,6 10 0,0
23.01.2020 12:00:00 6,7 6,4 26 14 46 25 ENE 1030,4 7 0,0
23.01.2020 11:00:00 6,7 6,5 29 16 - - ENE 1031,1 5 0,0
23.01.2020 10:00:00 6,7 6,5 31 17 46 25 ENE 1030,9 5 0,0
23.01.2020 09:00:00 6,9 6,6 34 18 46 25 ENE 1031,3 4,0 0,2
23.01.2020 08:00:00 6,8 6,6 31 17 - - ENE 1031,0 3,0 0,0
23.01.2020 07:00:00 6,4 6,1 18 10 - - NE 1031,2 3,5 0,0
23.01.2020 06:00:00 6,9 6,3 29 16 46 25 ENE 1031,4 7 0,0
23.01.2020 05:00:00 7,1 6,3 31 17 50 27 ENE 1031,6 12 0,0
23.01.2020 04:00:00 7,1 5,8 37 20 54 29 E 1031,9 21 0,0
23.01.2020 03:00:00 7,3 6,1 39 21 54 29 E 1032,6 16 0,0
23.01.2020 02:00:00 7,4 6,4 31 17 55 30 E 1032,9 14 0,0
23.01.2020 01:00:00 7,6 6,7 35 19 52 28 E 1033,3 10 0,0
23.01.2020 00:00:00 7,7 6,8 35 19 48 26 E 1033,7 22 0,0
22.01.2020 23:00:00 7,6 7,0 29 16 46 25 E 1033,9 13 0,0
22.01.2020 22:00:00 7,4 6,8 37 20 48 26 E 1034,3 10 0,0
22.01.2020 21:00:00 7,4 6,7 35 19 48 26 ENE 1034,3 17 0,0
22.01.2020 20:00:00 7,1 6,6 26 14 - - ENE 1034,8 10 0,0
22.01.2020 19:00:00 7,1 6,8 29 16 - - ENE 1034,9 13 0,0
22.01.2020 18:00:00 7,0 6,9 24 13 - - ENE 1034,7 10 0,0
22.01.2020 17:00:00 6,7 6,6 18 10 - - ENE 1035,0 3,1 0,0
22.01.2020 16:00:00 6,8 6,6 18 10 - - ENE 1035,2 1,6 0,0
22.01.2020 15:00:00 6,6 6,1 18 10 - - ENE 1035,7 2,0 0,0
22.01.2020 14:00:00 6,5 5,7 21 11 - - NE 1035,9 6 0,0
22.01.2020 13:00:00 6,5 5,7 16 9 - - NE 1036,6 10 0,0
22.01.2020 12:00:00 6,0 5,2 22 12 - - NE 1037,2 10 0,0
22.01.2020 11:00:00 5,3 4,6 24 13 - - NE 1037,6 10 0,0
22.01.2020 10:00:00 4,1 3,3 22 12 - - ENE 1037,7 10 0,0
22.01.2020 09:00:00 0,8 0,4 15 8 - - NE 1037,8 10 0,0
22.01.2020 08:00:00 0,0 -0,6 15 8 - - NE 1038,2 12 0,0
22.01.2020 07:00:00 -0,1 -0,7 11 6 - - NE 1038,0 10 0,0
22.01.2020 06:00:00 0,1 -0,3 15 8 - - NE 1038,2 12 0,0
22.01.2020 05:00:00 -0,1 -0,6 15 8 - - ENE 1038,5 10 0,0
22.01.2020 04:00:00 -0,6 -1,2 13 7 - - NE 1038,7 6 0,0
22.01.2020 03:00:00 2,2 2,0 11 6 - - NE 1039,3 8 0,0
22.01.2020 02:00:00 1,1 0,8 13 7 - - NE 1039,8 8 0,0
22.01.2020 01:00:00 1,4 1,0 15 8 - - NNE 1040,3 6 0,0
22.01.2020 00:00:00 0,7 0,0 15 8 - - NE 1040,6 8 0,0
21.01.2020 23:00:00 1,9 1,4 11 6 - - NE 1040,3 13 0,0
21.01.2020 22:00:00 2,4 1,6 9 5 - - NE 1040,5 18 0,0
21.01.2020 21:00:00 2,2 1,4 9 5 - - NE 1040,4 10 0,0
21.01.2020 20:00:00 2,7 1,6 9 5 - - NE 1040,4 10 0,0
21.01.2020 19:00:00 3,4 2,3 11 6 - - NE 1040,5 10 0,0
21.01.2020 18:00:00 3,2 1,6 11 6 - - NE 1040,3 10 0,0
21.01.2020 17:00:00 5,6 3,2 8 4 - - NE 1040,3 10 0,0
21.01.2020 16:00:00 6,7 3,3 11 6 - - E 1040,2 10 0,0
21.01.2020 15:00:00 7,4 3,4 11 6 - - E 1040,5 10 0,0
21.01.2020 14:00:00 7,5 3,4 11 6 - - E 1041,1 25 0,0
21.01.2020 13:00:00 7,7 3,4 15 8 - - ENE 1041,7 10 0,0
21.01.2020 12:00:00 7,2 3,4 15 8 - - ENE 1042,2 29 0,0
21.01.2020 11:00:00 6,3 3,8 13 7 - - NE 1042,6 10 0,0
21.01.2020 10:00:00 4,2 3,0 9 5 - - ENE 1043,2 10 0,0
21.01.2020 09:00:00 3,6 2,7 11 6 - - NE 1043,2 10 0,0
21.01.2020 08:00:00 3,3 2,7 8 4 - - NE 1042,9 10 0,0
21.01.2020 07:00:00 2,5 1,8 9 5 - - NE 1042,7 10 0,0
21.01.2020 06:00:00 2,4 1,7 11 6 - - NE 1042,9 29 0,0
21.01.2020 05:00:00 1,4 0,9 13 7 - - NE 1043,0 10 0,0
21.01.2020 04:00:00 2,9 2,8 9 5 - - NE 1043,5 29 0,0
21.01.2020 03:00:00 2,8 2,1 13 7 - - NNE 1043,9 10 0,0
21.01.2020 02:00:00 1,6 1,0 18 10 - - N 1044,3 27 0,0
21.01.2020 01:00:00 1,8 1,1 22 12 - - NNE 1044,9 26 0,0
21.01.2020 00:00:00 2,8 1,6 15 8 - - NNE 1045,4 10 0,0
20.01.2020 23:00:00 4,2 2,7 16 9 - - NNE 1045,5 22 0,0
20.01.2020 22:00:00 4,3 3,8 16 9 - - NNE 1046,1 10 0,0
20.01.2020 21:00:00 1,4 0,6 15 8 - - NNE 1046,8 10 0,0
20.01.2020 20:00:00 1,6 0,4 11 6 - - NNE 1047,1 10 0,0
20.01.2020 19:00:00 3,5 0,7 9 5 - - NE 1047,5 10 0,0
20.01.2020 18:00:00 3,4 -0,5 9 5 - - NNE 1047,6 10 0,0
20.01.2020 17:00:00 5,9 0,0 8 4 - - NNE 1047,3 20 0,0
20.01.2020 16:00:00 8,8 2,9 4 2 - - SW 1047,2 10 0,0
20.01.2020 15:00:00 9,4 -0,6 2 1 - - WNW 1047,4 10 0,0
20.01.2020 14:00:00 9,1 2,1 4 2 - - NW 1047,9 24 0,0
20.01.2020 13:00:00 8,3 3,0 4 2 - - NNE 1048,7 10 0,0
20.01.2020 12:00:00 7,4 4,7 5 3 - - E 1049,3 10 0,0
20.01.2020 11:00:00 6,0 5,2 9 5 - - E 1049,8 22 0,2
20.01.2020 10:00:00 2,5 2,3 15 8 - - NE 1049,9 10 0,0
20.01.2020 09:00:00 0,1 -0,1 15 8 - - NE 1049,9 11 0,0
20.01.2020 08:00:00 0,0 -0,3 11 6 - - ENE 1049,5 10 0,0
20.01.2020 07:00:00 -0,6 -1,2 9 5 - - ENE 1049,1 10 0,0
20.01.2020 06:00:00 2,5 2,3 8 4 - - ENE 1048,6 26 0,0
20.01.2020 05:00:00 1,4 1,0 11 6 - - E 1048,6 10 0,0
20.01.2020 04:00:00 0,1 -0,3 13 7 - - E 1048,9 22 0,0
20.01.2020 03:00:00 -1,2 -2,8 13 7 - - E 1049,6 23 0,0
20.01.2020 02:00:00 0,5 -1,3 13 7 - - ENE 1049,9 10 0,0
20.01.2020 01:00:00 1,6 0,4 13 7 - - ENE 1049,8 29 0,0
20.01.2020 00:00:00 2,4 0,6 11 6 - - ENE 1049,8 30 0,0
19.01.2020 23:00:00 1,6 -1,1 11 6 - - NE 1049,6 28 0,0
19.01.2020 22:00:00 0,6 -0,9 13 7 - - ENE 1049,7 10 0,0
19.01.2020 21:00:00 0,5 -2,0 18 10 - - E 1049,5 10 0,0
19.01.2020 20:00:00 1,3 -1,1 11 6 - - NE 1049,1 10 0,0
19.01.2020 19:00:00 2,6 0,4 13 7 - - ENE 1048,3 26 0,0
19.01.2020 18:00:00 4,0 1,2 9 5 - - ENE 1048,1 10 0,0
19.01.2020 17:00:00 4,6 1,0 9 5 - - ENE 1047,8 26 0,0
19.01.2020 16:00:00 6,6 2,4 11 6 - - ENE 1047,5 30 0,0
19.01.2020 15:00:00 7,5 3,3 13 7 - - E 1047,0 35 0,0
19.01.2020 14:00:00 7,4 3,2 13 7 - - E 1046,1 27 0,0
19.01.2020 13:00:00 7,4 3,1 13 7 - - E 1046,2 10 0,0
19.01.2020 12:00:00 7,1 3,5 9 5 - - ENE 1046,6 10 0,0
19.01.2020 11:00:00 5,8 3,3 8 4 - - ENE 1046,6 30 0,0
19.01.2020 10:00:00 2,8 1,7 11 6 - - ENE 1045,6 35 0,0
19.01.2020 09:00:00 0,8 -0,2 18 10 - - NE 1045,0 22 0,0
19.01.2020 08:00:00 0,6 -0,3 21 11 - - NE 1043,9 21 0,0
19.01.2020 07:00:00 1,2 0,2 18 10 - - NE 1043,0 24 0,0
19.01.2020 06:00:00 1,3 -0,2 18 10 - - NE 1042,4 23 0,0
19.01.2020 05:00:00 1,8 -0,3 18 10 - - ENE 1041,6 24 0,0
19.01.2020 04:00:00 1,3 -0,8 22 12 - - NE 1041,0 22 0,0
19.01.2020 03:00:00 0,4 -1,2 21 11 - - NE 1040,1 10 0,0
19.01.2020 02:00:00 1,3 -0,6 18 10 - - NE 1039,7 22 0,0
19.01.2020 01:00:00 1,6 -0,2 18 10 - - NE 1039,5 21 0,0
19.01.2020 00:00:00 1,4 -0,7 16 9 - - NE 1038,6 10 0,0
18.01.2020 23:00:00 2,2 -0,2 24 13 - - NNE 1038,1 10 0,0
18.01.2020 22:00:00 2,5 -0,3 29 16 - - NE 1036,9 10 0,0
18.01.2020 21:00:00 2,7 0,3 26 14 - - NE 1035,9 20 0,0
18.01.2020 20:00:00 3,0 0,4 24 13 - - NE 1034,9 19 0,0
18.01.2020 19:00:00 3,4 0,1 26 14 - - NE 1033,4 21 0,0
18.01.2020 18:00:00 3,2 -0,2 22 12 - - ENE 1032,1 10 0,0
18.01.2020 17:00:00 3,2 -0,6 21 11 - - NE 1030,9 10 0,0
18.01.2020 16:00:00 6,2 0,6 22 12 - - ENE 1029,8 10 0,0
18.01.2020 15:00:00 7,2 1,5 28 15 - - ENE 1029,2 29 0,0
18.01.2020 14:00:00 7,5 3,3 31 17 - - ENE 1028,7 10 0,0
18.01.2020 13:00:00 7,9 3,8 26 14 - - E 1028,5 10 0,0
18.01.2020 12:00:00 7,5 3,9 28 15 - - E 1028,0 10 0,0
18.01.2020 11:00:00 5,9 5,5 21 11 - - ENE 1027,8 10 0,0
18.01.2020 10:00:00 3,0 2,9 22 12 - - ENE 1027,5 21 0,0
18.01.2020 09:00:00 1,8 1,7 15 8 - - E 1026,9 18 0,0
18.01.2020 08:00:00 0,2 -0,2 22 12 - - ENE 1026,1 10 0,0
18.01.2020 07:00:00 0,4 0,1 15 8 - - E 1026,0 10 0,0
18.01.2020 06:00:00 1,0 0,5 9 5 - - E 1026,0 10 0,0
18.01.2020 05:00:00 0,1 -0,7 9 5 - - ENE 1025,8 23 0,0
18.01.2020 04:00:00 1,3 0,5 8 4 - - NNE 1025,5 30 0,0
18.01.2020 03:00:00 1,7 0,1 8 4 - - N 1025,2 10 0,0
18.01.2020 02:00:00 4,7 2,8 11 6 - - WNW 1025,1 35 0,0

tt = temperature
td = dewpoint
ff = wind speed
fx = gusts
dd = wind direction
ppp = reduced air pressure
vv = visibility
rr = precipitation

Next stations